EW8704 Weather Reports


Display with metric or nautical units.
time (UTC)temp
F
wind
direction
speed
MPH
gust
MPH
rain 1hr
in
rain 24hr
in
rain mn
in
humidity
%
barometer
mb
20260906143056 69 61 0.0 3.0 0.00 0.00 0.00 92 1019.1
20260906141524 68 120 0.0 1.0 0.00 0.00 0.00 93 1019.5
20260906140111 67 158 0.0 2.0 0.00 0.00 0.00 94 1019.2
20260906134548 67 76 0.0 0.0 0.00 0.00 0.00 95 1019.0
20260906133037 66 190 0.0 1.0 0.00 0.00 0.00 95 1018.9
20260906131524 66 190 0.0 1.0 0.00 0.00 0.00 96 1018.6
20260906124544 65 190 0.0 0.0 0.00 0.00 0.00 97 1018.7
20260906123043 65 190 0.0 0.0 0.00 0.00 0.00 97 1018.8
20260906121516 65 190 0.0 0.0 0.00 0.00 0.00 97 1018.6
20260906120115 65 190 0.0 0.0 0.00 0.00 0.00 97 1018.6
20260906114548 65 190 0.0 0.0 0.00 0.00 0.00 98 1018.1
20260906113056 65 190 0.0 0.0 0.00 0.00 0.00 98 1018.2
20260906111530 65 190 0.0 0.0 0.00 0.00 0.00 98 1018.5
20260906110012 65 190 0.0 0.0 0.00 0.00 0.00 97 1018.4
20260906104510 65 190 0.0 1.0 0.00 0.00 0.00 96 1018.2
20260906103059 66 190 0.0 0.0 0.00 0.00 0.00 97 1018.1
20260906101537 66 190 0.0 0.0 0.00 0.00 0.00 96 1017.9
20260906100036 66 190 0.0 1.0 0.00 0.00 0.00 96 1017.7
20260906094533 66 190 0.0 0.0 0.00 0.00 0.00 96 1017.3
20260906093105 67 190 0.0 1.0 0.00 0.00 0.00 96 1017.2
20260906091551 67 190 0.0 1.0 0.00 0.00 0.00 95 1017.1
20260906090054 67 190 0.0 1.0 0.00 0.00 0.00 95 1017.3
20260906084546 67 190 0.0 0.0 0.00 0.00 0.00 96 1017.3
20260906083014 67 190 0.0 0.0 0.00 0.00 0.00 96 1017.2
20260906081504 67 190 0.0 0.0 0.00 0.00 0.00 96 1017.2
20260906080107 67 190 0.0 0.0 0.00 0.00 0.00 96 1017.3
20260906074540 67 190 0.0 1.0 0.00 0.00 0.00 96 1017.2
20260906073041 67 190 0.0 0.0 0.00 0.00 0.00 97 1017.3
20260906071518 67 190 0.0 0.0 0.00 0.00 0.00 97 1017.6
20260906070002 67 190 0.0 0.0 0.00 0.00 0.00 95 1017.7
20260906064554 67 190 0.0 0.0 0.00 0.00 0.00 96 1017.5
20260906063058 67 190 0.0 1.0 0.00 0.00 0.00 96 1017.7
20260906061548 67 190 0.0 0.0 0.00 0.00 0.00 96 1017.7
20260906060038 67 190 0.0 0.0 0.00 0.00 0.00 96 1017.8
20260906054520 67 190 0.0 0.0 0.00 0.00 0.00 95 1017.8
20260906053106 67 190 0.0 1.0 0.00 0.00 0.00 95 1017.7
20260906051605 68 190 0.0 0.0 0.00 0.00 0.00 94 1017.7
20260906050014 68 190 0.0 1.0 0.00 0.00 0.00 94 1017.5
20260906044508 68 190 0.0 0.0 0.00 0.00 0.00 93 1017.5
20260906043053 69 190 0.0 0.0 0.00 0.00 0.00 91 1017.2
20260906041527 69 97 0.0 1.0 0.00 0.00 0.00 91 1017.0
20260906040036 69 174 0.0 2.0 0.00 0.00 0.00 92 1016.9
20260906034526 68 174 0.0 2.0 0.00 0.00 0.00 93 1016.8
20260906033110 68 174 0.0 1.0 0.00 0.00 0.00 94 1016.8
20260906031559 68 174 0.0 3.0 0.00 0.00 0.00 94 1016.7
20260906030116 68 63 0.0 0.0 0.00 0.00 0.00 93 1016.4
20260906024601 69 63 0.0 0.0 0.00 0.00 0.00 93 1016.2
20260906023048 69 63 0.0 0.0 0.00 0.00 0.00 92 1016.0
20260906021535 69 63 0.0 0.0 0.00 0.00 0.00 92 1015.6
20260906020029 69 63 0.0 0.0 0.00 0.00 0.00 93 1015.2
20260906014524 69 63 0.0 0.0 0.00 0.00 0.00 92 1015.0
20260906013057 70 63 0.0 0.0 0.00 0.00 0.00 91 1014.8
20260906011543 71 63 0.0 0.0 0.00 0.00 0.00 90 1014.7
20260906010035 72 63 0.0 0.0 0.00 0.00 0.00 87 1014.8
20260906004538 74 63 0.0 0.0 0.00 0.00 0.00 84 1014.8
20260906003009 75 63 0.0 0.0 0.00 0.00 0.00 81 1014.9
20260906001509 77 63 0.0 0.0 0.00 0.00 0.00 78 1014.9
20260906000109 78 63 0.0 0.0 0.00 0.00 0.00 77 1014.9
20260905234606 78 63 0.0 1.0 0.00 0.00 0.00 75 1014.8
20260905233053 79 63 0.0 2.0 0.00 0.00 0.00 75 1014.6
20260905231545 79 95 0.0 1.0 0.00 0.00 0.00 76 1014.8
20260905230041 79 95 0.0 1.0 0.00 0.00 0.00 75 1014.9
20260905224530 79 95 0.0 0.0 0.00 0.00 0.00 74 1014.9
20260905223003 81 250 0.0 2.0 0.00 0.00 0.00 72 1015.0
20260905221500 80 47 0.0 1.0 0.00 0.00 0.00 73 1015.0
20260905220047 80 25 0.0 2.0 0.00 0.00 0.00 73 1015.2
20260905214541 80 241 0.0 1.0 0.00 0.00 0.00 72 1015.2
20260905213041 80 226 0.0 3.0 0.00 0.00 0.00 74 1015.4
20260905211508 80 99 0.0 2.0 0.00 0.00 0.00 73 1015.4
20260905210058 80 310 0.0 2.0 0.00 0.00 0.00 77 1015.5
20260905204546 80 284 0.0 3.0 0.00 0.00 0.00 76 1015.7
20260905203037 79 254 0.0 1.0 0.00 0.00 0.00 77 1015.9
20260905201517 78 177 0.0 2.0 0.00 0.00 0.00 78 1015.8
20260905200113 79 177 0.0 2.0 0.00 0.00 0.00 77 1015.8
20260905194557 80 124 0.0 3.0 0.00 0.00 0.00 74 1015.9
20260905193045 78 340 0.0 1.0 0.00 0.00 0.00 80 1015.8
20260905191508 77 269 1.0 3.0 0.00 0.00 0.00 78 1015.7
20260905190100 77 283 0.0 2.0 0.00 0.00 0.00 83 1015.8
20260905184537 76 304 0.0 3.0 0.00 0.00 0.00 83 1015.8
20260905183035 76 63 1.0 4.0 0.00 0.00 0.00 83 1015.9
20260905181603 75 256 0.0 2.0 0.00 0.00 0.00 84 1016.1
20260905181501 75 256 0.0 2.0 0.00 0.00 0.00 85 1016.2
20260905180045 74 132 0.0 1.0 0.00 0.00 0.00 87 1016.2
20260905174508 73 313 0.0 2.0 0.00 0.00 0.00 91 1016.4
20260905173044 72 263 0.0 1.0 0.00 0.00 0.00 92 1016.5
20260905171526 72 155 0.0 0.0 0.00 0.00 0.00 93 1016.5
20260905170036 72 100 0.0 1.0 0.00 0.00 0.00 93 1016.5
20260905164517 72 55 0.0 1.0 0.00 0.00 0.00 93 1016.6
20260905163114 72 55 0.0 2.0 0.00 0.00 0.00 92 1016.7
20260905161554 72 95 0.0 1.0 0.00 0.00 0.00 92 1016.6
20260905160048 72 95 0.0 2.0 0.00 0.00 0.00 93 1016.4
20260905154526 72 226 0.0 1.0 0.00 0.00 0.00 95 1016.3
20260905153112 71 226 0.0 2.0 0.00 0.00 0.00 97 1016.3
20260905151551 71 155 0.0 1.0 0.00 0.00 0.00 98 1016.1
20260905150035 70 155 0.0 0.0 0.00 0.00 0.00 98 1016.1
20260905144522 70 155 0.0 1.0 0.00 0.00 0.00 98 1016.1